Weather History for Bismarck, ND

Change the Weather History Date:

Friday, July 13, 2012

  Actual Average Record
Temperature  
Mean Temperature 76 °F 71 °F  
Max Temperature 91 °F 85 °F 100 °F (2003)
Min Temperature 61 °F 57 °F 39 °F (1967)
Degree Days  
Heating Degree Days 0 1  
Month to date heating degree days 0 13  
Since 1 June heating degree days 33 106  
Since 1 July heating degree days 0 13  
Cooling Degree Days 11 7  
Month to date cooling degree days 123 74  
Year to date cooling degree days 232 174  
Since 1 June cooling degree days 227 157  
Growing Degree Days 26 (Base 50)    
Moisture  
Dew Point 60 °F    
Average Humidity 59    
Maximum Humidity 84    
Minimum Humidity 34    
Precipitation  
Precipitation 0.00 in 0.10 in 1.46 in (1949)
Month to date precipitation 1.58 1.30  
Year to date precipitation 8.73 9.94  
Snow  
Snow 0.00 in 0.00 in 0.00 in (2002)
Month to date snowfall 0.0 0.0  
Since 1 June snowfall 0.0 0.0  
Since 1 July snowfall 0.0 0.0  
Snow Depth 0.00 in    
Sea Level Pressure  
Sea Level Pressure 29.99 in    
Wind  
Wind Speed 4 mph (NW)    
Max Wind Speed 10 mph    
Max Gust Speed 14 mph    
Visibility 9 miles    
Events      
T = Trace of Precipitation, MM = Missing Value Source: NWS Daily Summary

Daily Weather History Graph

Daily Weather History Graph

Search for Another Location

Airport:

Trip Planner

Search our weather history database for the weather conditions in past years. The results will help you decide how hot, cold, wet, or windy it might be!

Date:

Astronomy

Jul. 13, 2012 Rise Set
Actual Time 6:02 AM CDT 9:34 PM CDT
Civil Twilight 5:24 AM CDT 10:12 PM CDT
Nautical Twilight 4:34 AM CDT 11:02 PM CDT
Astronomical Twilight 3:26 AM CDT 12:09 AM CDT
Moon 1:45 AM CDT (7/13) 5:02 PM CDT (7/13)
Length of Visible Light 16h 47m
Length of Day
15h 31m
Waning Crescent, 26% of the Moon is Illuminated
Jul 13
Waning Crescent
Jul 18
New
Jul 26
First Quarter
Aug 1
Full
Aug 9
Last Quarter

Hourly Weather History & Observations

Time (CDT) Temp. Heat Index Dew Point Humidity Pressure Visibility Wind Dir Wind Speed Gust Speed Precip Events Conditions
12:52 AM 70.0 °F - 63.0 °F 78% 29.95 in 7.0 mi West 4.6 mph - N/A   Clear
1:52 AM 68.0 °F - 61.0 °F 78% 29.96 in 10.0 mi WSW 5.8 mph - N/A   Clear
2:52 AM 66.9 °F - 60.1 °F 79% 29.96 in 9.0 mi West 3.5 mph - N/A   Clear
3:52 AM 66.0 °F - 59.0 °F 78% 29.96 in 9.0 mi WSW 4.6 mph - N/A   Clear
4:52 AM 64.0 °F - 59.0 °F 84% 29.96 in 9.0 mi WSW 4.6 mph - N/A   Clear
5:52 AM 62.1 °F - 57.9 °F 86% 29.97 in 9.0 mi Calm Calm - N/A   Clear
6:52 AM 63.0 °F - 57.9 °F 84% 29.98 in 9.0 mi West 5.8 mph - N/A   Clear
7:52 AM 66.0 °F - 59.0 °F 78% 30.00 in 9.0 mi WNW 4.6 mph - N/A   Clear
8:52 AM 71.1 °F - 60.1 °F 68% 30.01 in 10.0 mi Calm Calm - N/A   Clear
9:52 AM 75.9 °F - 61.0 °F 60% 30.01 in 10.0 mi West 4.6 mph - N/A   Clear
10:52 AM 81.0 °F 82.2 °F 63.0 °F 54% 30.01 in 10.0 mi Variable 4.6 mph - N/A   Clear
11:52 AM 86.0 °F 86.1 °F 61.0 °F 43% 30.01 in 10.0 mi NW 9.2 mph - N/A   Clear
12:52 PM 84.9 °F 84.4 °F 59.0 °F 41% 30.02 in 10.0 mi Variable 3.5 mph - N/A   Clear
1:52 PM 87.1 °F 87.0 °F 61.0 °F 41% 30.01 in 9.0 mi SE 4.6 mph - N/A   Clear
2:52 PM 89.1 °F 87.7 °F 57.0 °F 34% 30.00 in 8.0 mi Variable 5.8 mph - N/A   Partly Cloudy
3:52 PM 88.0 °F 86.5 °F 55.9 °F 34% 29.99 in 9.0 mi NE 3.5 mph - N/A   Clear
4:52 PM 90.0 °F 88.6 °F 57.0 °F 33% 29.99 in 10.0 mi Variable 4.6 mph - N/A   Clear
5:52 PM 90.0 °F 88.6 °F 57.0 °F 33% 29.98 in 10.0 mi East 8.1 mph - N/A   Clear
6:52 PM 89.1 °F 87.7 °F 57.0 °F 34% 29.97 in 10.0 mi Calm Calm - N/A   Clear
7:52 PM 88.0 °F 86.9 °F 57.9 °F 36% 29.97 in 10.0 mi NE 3.5 mph - N/A   Clear
8:52 PM 82.9 °F 84.0 °F 63.0 °F 51% 29.98 in 10.0 mi ENE 5.8 mph - N/A   Clear
9:52 PM 75.9 °F - 62.1 °F 62% 29.99 in 10.0 mi ENE 4.6 mph - N/A   Clear
10:52 PM 75.9 °F - 62.1 °F 62% 30.01 in 10.0 mi NE 4.6 mph - N/A   Clear
11:52 PM 70.0 °F - 63.0 °F 78% 30.02 in 10.0 mi Calm Calm - N/A   Clear